Regional Weather Roundup
Issued by NWS

Home | Current Version | Previous Version | Graphics & Text | Print | Product List | Glossary On
Versions: 1 2 3 4 5 6 7 8 9 10 11 12 13 14 15 16 17 18 19 20 21 22 23 24 25 26 27 28 29 30 31 32 33 34 35 36 37 38 39 40 41 42 43 44 45 46 47 48 49 50
000
ASUS43 KMPX 121610
RWRMN
WEATHER ROUNDUP FOR MINNESOTA
NATIONAL WEATHER SERVICE TWIN CITIES/CHANHASSEN MN
1000 AM CST TUE DEC 12 2017


NOTE: "FAIR" INDICATES FEW OR NO CLOUDS BELOW 12,000 FEET WITH NO
SIGNIFICANT WEATHER AND/OR OBSTRUCTIONS TO VISIBILITY. N/A MEANS
CURRENT SKY AND/OR WEATHER CONDITIONS ARE NOT AVAILABLE.

MNZ060>063-068>070-121700-
   Twin Cities Metro

CITY           SKY/WX    TMP DP  RH WIND       PRES   REMARKS
TWIN CITIES    PTSUNNY   12   5  73 NW6       30.19F WCI   3
ST PAUL        MOSUNNY   10   4  76 NW7       30.21F WCI  -1
CRYSTAL        CLOUDY    11   2  67 CALM      30.17F
BLAINE         PTSUNNY   10   5  79 W6        30.17F WCI   1
LAKEVILLE        N/A     12   5  73 W3        30.18F
EDEN PRAIRIE   CLOUDY    14   5  67 CALM      30.17F
SOUTH ST PAUL  MOSUNNY   12   3  68 NW3       30.19F
LAKE ELMO      FAIR      10   3  72 W6        30.19F WCI   1
$$
MNZ001>005-007-008-013>017-022>024-027-028-121700-
   Northwest Minnesota

CITY           SKY/WX    TMP DP  RH WIND       PRES   REMARKS
HALLOCK        CLOUDY    19  18  93 S15       29.97S WCI   5
ROSEAU         LGT SNOW  12   9  85 SE6       29.98F WCI   3
WARROAD        LGT SNOW   9   7  92 SE3       30.00F
THIEF RVR FALL FLURRIES  18  16  92 S12       29.98F WCI   5
CROOKSTON      CLOUDY    19  18  93 S13       30.00F WCI   7
DETROIT LAKES  PTSUNNY   19  18  93 S7        30.03F WCI  10
MOORHEAD       CLOUDY    19  18  93 S8        30.05S WCI   9
PARK RAPIDS    CLOUDY    12   9  87 SE7       30.02F FOG     WCI   1
MAHNOMEN       CLOUDY    18  16  93 S10       30.01F WCI   6
$$
MNZ006-009>011-018-025>026-121700-
   North Central Minnesota

CITY           SKY/WX    TMP DP  RH WIND       PRES   REMARKS
BAUDETTE       LGT SNOW   7   4  87 SE7       30.01F FOG     WCI  -5
FLAG ISLAND    LGT SNOW   9   5  85 SE9       30.00S WCI  -5
INTL FALLS     CLOUDY     3  -1  83 SW5       30.06R WCI  -6
WASKISH        FLURRIES   7   5  92 SE7       30.02F WCI  -5
LONGVILLE      FLURRIES   7   5  92 SE3       30.05F
GRAND RAPIDS   CLOUDY     5   1  83 S3        30.09S
CRANE LAKE     CLOUDY     0  -2  92 CALM      30.10S
ORR            CLOUDY     1  -2  85 CALM      30.03S
COOK           CLOUDY     1   0  92 CALM      30.07S
WALKER         CLOUDY     9   6  89 SE5       30.04F FOG     WCI   0
$$
MNZ012-019>021-037-121700-
   Northeast Minnesota

CITY           SKY/WX    TMP DP  RH WIND       PRES   REMARKS
DULUTH         CLOUDY     2  -1  88 NW5       30.06F WCI  -8
ELY            CLOUDY     0  -6  78 CALM      30.05F
HIBBING        CLOUDY     2  -1  88 CALM      30.07S
EVELETH        CLOUDY     2  -4  78 CALM      30.08S
TWO HARBORS    CLOUDY     7   0  72 W8        30.06F WCI  -6
GRAND MARAIS     N/A      5  -3  69 CALM      30.11F
$$
MNZ029>031-032-039>041-046>048-054>057-064-121700-
   West Central Minnesota

CITY           SKY/WX    TMP DP  RH WIND       PRES   REMARKS
FERGUS FALLS   PTSUNNY   19  16  86 S10       30.09F WCI   8
WHEATON        CLOUDY    27  21  80 S6        30.10F WCI  20
MORRIS         CLOUDY    21  16  79 S9        30.09F WCI  11
ALEXANDRIA     CLOUDY    17  12  80 SW9       30.07F WCI   6
ELBOW LAKE     CLOUDY    19  16  89 S9        30.07F FOG     WCI   8
GLENWOOD       CLOUDY    18  12  79 S12       30.08F WCI   5
APPLETON       CLOUDY    23  18  80 S6        30.11F WCI  16
ORTONVILLE     CLOUDY    23  19  86 S5        30.11F WCI  17
MADISON        CLOUDY    28  25  86 SW6       30.13F WCI  22
WILLMAR        PTSUNNY   19  16  86 CALM      30.15F
$$
MNZ033>034-036-042>043-049>051-058-059-121700-
   Central Minnesota

CITY           SKY/WX    TMP DP  RH WIND       PRES   REMARKS
ST CLOUD       CLOUDY    11   8  88 SW6       30.15F FOG     WCI   1
PAYNESVILLE    CLOUDY    16  11  83 S3        30.15F
AITKIN         FLURRIES   5   1  85 S3        30.09S
PINE RIVER     CLOUDY     7   3  85 S5        30.09F WCI  -2
BRAINERD       CLOUDY     8   3  80 S7        30.10F HAZE    WCI  -3
STAPLES        CLOUDY    10   7  85 SE6       30.07F WCI   1
LITTLE FALLS   FLURRIES  12   5  73 S6        30.13F WCI   3
LITCHFIELD     CLOUDY    18  10  73 W3        30.16F
$$
MNZ037-044-045-052-053-121700-
   East Central Minnesota

CITY           SKY/WX    TMP DP  RH WIND       PRES   REMARKS
PRINCETON      PTSUNNY   10   5  79 CALM      30.15F
MORA           CLOUDY     9   3  78 W5        30.16F WCI   0
CAMBRIDGE      PTSUNNY    9   1  72 CALM      30.15F
RUSH CITY      CLOUDY     6   1  81 CALM      30.17F
HINCKLEY       CLOUDY     9   3  78 W3        30.14F
CLOQUET        CLOUDY     3   0  85 W6        30.08F WCI  -8
MCGREGOR       CLOUDY     9   5  85 CALM      30.11S
$$
MNZ071>073-080-081-089-090-097-098-121700-
   Southwest Minnesota

CITY           SKY/WX    TMP DP  RH WIND       PRES   REMARKS
MONTEVIDEO     CLOUDY    19  18  93 SW5       30.13F WCI  13
GRANITE FALLS  CLOUDY    23  19  85 S7        30.16F FOG     WCI  14
MARSHALL       CLOUDY    26  21  81 W10       30.15S WCI  16
REDWOOD FALLS  CLOUDY    18  11  74 S7        30.16F WCI   9
OLIVIA         PTSUNNY   18  14  86 SW7       30.16F WCI   8
PIPESTONE      CLOUDY    21  18  86 W10       30.15S WCI  10
WINDOM           N/A     19   7  58 SW8       30.17F WCI   9
WORTHINGTON    SUNNY     19  14  81 SW10      30.18F WCI   7
JACKSON        CLOUDY    19  14  79 MISG      30.18F
SLAYTON        MOSUNNY   21  17  85 W13       30.16R WCI   9
$$
MNZ065>067-074>077-082>085-091>093-121700-
   South Central Minnesota

CITY           SKY/WX    TMP DP  RH WIND       PRES   REMARKS
MANKATO        PTSUNNY   13   7  77 NW5       30.20F WCI   5
NEW ULM        CLOUDY    16  10  79 CALM      30.18F
ST JAMES       PTSUNNY   18  12  79 SW6       30.20F WCI   9
FAIRMONT       SUNNY     18  11  74 W8        30.20F WCI   8
GLENCOE        CLOUDY    15   9  75 CALM      30.17F
FARIBAULT      CLOUDY    12   7  79 CALM      30.20R
OWATONNA       CLOUDY    12   7  79 W7        30.18F WCI   2
WASECA         CLOUDY    14   9  79 W6        30.21F WCI   5
ALBERT LEA     PTSUNNY   14   5  67 NW7       30.19S WCI   4
$$
MNZ078>079-086>088-094>096-121700-
   Southeast Minnesota

CITY           SKY/WX    TMP DP  RH WIND       PRES   REMARKS
ROCHESTER      SUNNY     10   5  80 NW10      30.16F WCI  -4
RED WING       SUNNY     10   0  61 NW7       30.20F WCI   0
STANTON        MOSUNNY   12   5  74 NW5       30.19F WCI   4
DODGE CENTER   PTSUNNY   10   3  72 W7        30.16S WCI   0
WINONA           N/A     14   7  73 NW5       30.20F WCI   6
AUSTIN         MOSUNNY   12   7  79 W6        30.18F WCI   3
PRESTON        SUNNY     10   5  78 NW9       30.16F WCI  -3
$$
ABBREVIATIONS USED IN REMARKS
   TC - TEMPERATURES IN CELSIUS
  WCI - WIND CHILL INDEX
   HX - HEAT INDEX
  VSB - VISIBILITY
$$




USA.gov is the U.S. government's official web portal to all federal, state and local government web resources and services.